,,,PA_Meas_PMT16A,,PR_Meas_QMR101_102,,RH_Meas_QMH101,,SR_Meas_QMS101,,TA_Meas_QMH101,,GenWind,,GenWind,
date,time,status,PA,status,PR,status,RH,status,SR,status,TA,status,DirAvg,status,SpdAvg,
2011-10-16, 00:00:04,VALID,1009.316,VALID,0.0,VALID,104.0,VALID,0.0,VALID,25.368,VALID,329.0,VALID,0.464,
2011-10-16, 00:01:04,VALID,1009.344,VALID,0.0,VALID,104.0,VALID,0.0,VALID,25.39,VALID,329.0,VALID,0.173,
2011-10-16, 00:02:04,VALID,1009.316,VALID,0.0,VALID,104.0,VALID,0.0,VALID,25.39,VALID,330.0,VALID,0.271,
2011-10-16, 00:03:04,VALID,1009.312,VALID,0.0,VALID,104.0,VALID,0.0,VALID,25.388,VALID,330.0,VALID,0.254,
2011-10-16, 00:04:04,VALID,1009.267,VALID,0.0,VALID,104.0,VALID,0.0,VALID,25.388,VALID,330.0,VALID,0.172,
2011-10-16, 00:05:04,VALID,1009.282,VALID,0.0,VALID,104.0,VALID,0.112,VALID,25.366,VALID,330.0,VALID,0.0,
2011-10-16, 00:06:04,VALID,1009.279,VALID,0.0,VALID,104.0,VALID,0.112,VALID,25.388,VALID,330.0,VALID,0.096,
2011-10-16, 00:07:04,VALID,1009.262,VALID,0.0,VALID,104.0,VALID,0.0,VALID,25.388,VALID,330.0,VALID,0.082,
2011-10-16, 00:08:04,VALID,1009.29,VALID,0.0,VALID,104.0,VALID,0.112,VALID,25.349,VALID,330.0,VALID,0.302,
2011-10-16, 00:09:04,VALID,1009.284,VALID,0.0,VALID,104.0,VALID,0.112,VALID,25.347,VALID,330.0,VALID,0.534,
2011-10-16, 00:10:04,VALID,1009.288,VALID,0.0,VALID,104.0,VALID,0.112,VALID,25.368,VALID,346.0,VALID,0.633,
2011-10-16, 00:11:04,VALID,1009.276,VALID,0.0,VALID,104.0,VALID,0.112,VALID,25.368,VALID,5.0,VALID,0.502,
2011-10-16, 00:12:04,VALID,1009.265,VALID,0.0,VALID,104.0,VALID,0.0,VALID,25.368,VALID,5.0,VALID,0.553,
2011-10-16, 00:13:04,VALID,1009.251,VALID,0.0,VALID,104.0,VALID,0.112,VALID,25.368,VALID,5.0,VALID,0.293,
2011-10-16, 00:14:04,VALID,1009.225,VALID,0.0,VALID,104.0,VALID,0.112,VALID,25.349,VALID,5.0,VALID,0.0,
2011-10-16, 00:15:04,VALID,1009.222,VALID,0.0,VALID,104.0,VALID,0.112,VALID,25.329,VALID,5.0,VALID,0.0,
2011-10-16, 00:16:04,VALID,1009.248,VALID,0.0,VALID,104.0,VALID,0.112,VALID,25.329,VALID,5.0,VALID,0.0,
2011-10-16, 00:17:04,VALID,1009.248,VALID,0.0,VALID,104.0,VALID,0.0,VALID,25.31,VALID,5.0,VALID,0.0,
2011-10-16, 00:18:04,VALID,1009.269,VALID,0.0,VALID,104.0,VALID,0.112,VALID,25.31,VALID,5.0,VALID,0.0,
2011-10-16, 00:19:04,VALID,1009.267,VALID,0.0,VALID,104.0,VALID,0.0,VALID,25.31,VALID,5.0,VALID,0.0,
2011-10-16, 00:20:04,VALID,1009.236,VALID,0.0,VALID,104.0,VALID,0.0,VALID,25.329,VALID,5.0,VALID,0.0,
2011-10-16, 00:21:04,VALID,1009.237,VALID,0.0,VALID,104.0,VALID,0.112,VALID,25.349,VALID,5.0,VALID,0.0,
2011-10-16, 00:22:04,VALID,1009.217,VALID,0.0,VALID,104.0,VALID,0.112,VALID,25.329,VALID,5.0,VALID,0.0,
2011-10-16, 00:23:04,VALID,1009.185,VALID,0.0,VALID,104.0,VALID,0.112,VALID,25.349,VALID,5.0,VALID,0.0,
2011-10-16, 00:24:04,VALID,1009.16,VALID,0.0,VALID,104.0,VALID,0.112,VALID,25.368,VALID,5.0,VALID,0.0,
2011-10-16, 00:25:04,VALID,1009.117,VALID,0.0,VALID,104.0,VALID,0.112,VALID,25.347,VALID,5.0,VALID,0.0,
2011-10-16, 00:26:04,VALID,1009.098,VALID,0.0,VALID,104.0,VALID,0.112,VALID,25.349,VALID,5.0,VALID,0.0,
2011-10-16, 00:27:04,VALID,1009.122,VALID,0.0,VALID,104.0,VALID,0.0,VALID,25.349,VALID,5.0,VALID,0.0,
2011-10-16, 00:28:04,VALID,1009.119,VALID,0.0,VALID,104.0,VALID,0.112,VALID,25.368,VALID,5.0,VALID,0.0,
2011-10-16, 00:29:04,VALID,1009.121,VALID,0.0,VALID,104.0,VALID,0.112,VALID,25.388,VALID,5.0,VALID,0.0,
2011-10-16, 00:30:04,VALID,1009.123,VALID,0.0,VALID,104.0,VALID,0.0,VALID,25.388,VALID,5.0,VALID,0.0,
2011-10-16, 00:31:04,VALID,1009.116,VALID,0.0,VALID,104.0,VALID,0.0,VALID,25.407,VALID,5.0,VALID,0.0,
2011-10-16, 00:32:04,VALID,1009.079,VALID,0.0,VALID,104.0,VALID,0.0,VALID,25.407,VALID,5.0,VALID,0.0,
2011-10-16, 00:33:04,VALID,1009.037,VALID,0.0,VALID,104.0,VALID,0.112,VALID,25.427,VALID,5.0,VALID,0.0,
2011-10-16, 00:34:04,VALID,1008.969,VALID,0.0,VALID,104.0,VALID,0.112,VALID,25.427,VALID,5.0,VALID,0.0,
2011-10-16, 00:35:04,VALID,1008.941,VALID,0.0,VALID,104.0,VALID,0.112,VALID,25.427,VALID,5.0,VALID,0.0,
2011-10-16, 00:36:04,VALID,1008.941,VALID,0.0,VALID,104.0,VALID,0.112,VALID,25.425,VALID,5.0,VALID,0.165,
2011-10-16, 00:37:04,VALID,1008.949,VALID,0.0,VALID,104.0,VALID,0.112,VALID,25.425,VALID,5.0,VALID,0.26,
2011-10-16, 00:38:04,VALID,1008.973,VALID,0.0,VALID,104.0,VALID,0.112,VALID,25.446,VALID,5.0,VALID,0.359,
2011-10-16, 00:39:04,VALID,1009.0,VALID,0.0,VALID,104.0,VALID,0.112,VALID,25.427,VALID,5.0,VALID,0.369,
2011-10-16, 00:40:04,VALID,1008.991,VALID,0.0,VALID,104.0,VALID,0.112,VALID,25.407,VALID,5.0,VALID,0.222,
2011-10-16, 00:41:04,VALID,1009.01,VALID,0.0,VALID,104.0,VALID,0.112,VALID,25.368,VALID,5.0,VALID,0.0,
2011-10-16, 00:42:04,VALID,1009.002,VALID,0.0,VALID,104.0,VALID,0.112,VALID,25.349,VALID,5.0,VALID,0.0,
2011-10-16, 00:43:04,VALID,1008.986,VALID,0.0,VALID,104.0,VALID,0.224,VALID,25.329,VALID,5.0,VALID,0.0,
2011-10-16, 00:44:04,VALID,1008.976,VALID,0.0,VALID,104.0,VALID,0.112,VALID,25.308,VALID,5.0,VALID,0.0,
2011-10-16, 00:45:04,VALID,1008.95,VALID,0.0,VALID,104.0,VALID,0.112,VALID,25.349,VALID,5.0,VALID,0.0,
2011-10-16, 00:46:04,VALID,1008.959,VALID,0.0,VALID,104.0,VALID,0.112,VALID,25.329,VALID,5.0,VALID,0.295,
2011-10-16, 00:47:04,VALID,1008.933,VALID,0.0,VALID,104.0,VALID,0.112,VALID,25.329,VALID,5.0,VALID,0.263,
2011-10-16, 00:48:04,VALID,1008.973,VALID,0.0,VALID,104.0,VALID,0.0,VALID,25.37,VALID,5.0,VALID,0.309,
2011-10-16, 00:49:04,VALID,1008.978,VALID,0.0,VALID,104.0,VALID,0.0,VALID,25.37,VALID,5.0,VALID,0.296,
2011-10-16, 00:50:04,VALID,1009.005,VALID,0.0,VALID,104.0,VALID,0.112,VALID,25.39,VALID,5.0,VALID,0.275,
2011-10-16, 00:51:04,VALID,1008.994,VALID,0.0,VALID,104.0,VALID,0.0,VALID,25.39,VALID,5.0,VALID,0.027,
2011-10-16, 00:52:04,VALID,1008.989,VALID,0.0,VALID,104.0,VALID,0.0,VALID,25.388,VALID,5.0,VALID,0.012,
2011-10-16, 00:53:04,VALID,1008.992,VALID,0.0,VALID,104.0,VALID,0.0,VALID,25.429,VALID,5.0,VALID,0.0,
2011-10-16, 00:54:04,VALID,1008.979,VALID,0.0,VALID,104.0,VALID,0.0,VALID,25.448,VALID,5.0,VALID,0.0,
2011-10-16, 00:55:04,VALID,1008.982,VALID,0.0,VALID,104.0,VALID,0.0,VALID,25.466,VALID,5.0,VALID,0.049,
2011-10-16, 00:56:04,VALID,1008.978,VALID,0.0,VALID,104.0,VALID,0.112,VALID,25.507,VALID,5.0,VALID,0.32,
2011-10-16, 00:57:04,VALID,1008.968,VALID,0.0,VALID,104.0,VALID,0.0,VALID,25.526,VALID,5.0,VALID,0.28,
2011-10-16, 00:58:04,VALID,1008.966,VALID,0.0,VALID,104.0,VALID,0.0,VALID,25.565,VALID,5.0,VALID,0.443,
2011-10-16, 00:59:04,VALID,1008.953,VALID,0.0,VALID,104.0,VALID,0.0,VALID,25.604,VALID,5.0,VALID,0.319,
2011-10-16, 01:00:04,VALID,1008.961,VALID,0.0,VALID,104.0,VALID,0.0,VALID,25.622,VALID,4.0,VALID,0.525,
2011-10-16, 01:01:04,VALID,1008.962,VALID,0.0,VALID,104.0,VALID,0.0,VALID,25.702,VALID,5.0,VALID,0.41,
2011-10-16, 01:02:04,VALID,1008.981,VALID,0.0,VALID,104.0,VALID,0.112,VALID,25.7,VALID,316.0,VALID,0.421,
2011-10-16, 01:03:04,VALID,1008.986,VALID,0.0,VALID,104.0,VALID,0.0,VALID,25.76,VALID,259.0,VALID,0.381,
2011-10-16, 01:04:04,VALID,1008.995,VALID,0.0,VALID,104.0,VALID,0.0,VALID,25.797,VALID,259.0,VALID,0.235,
2011-10-16, 01:05:04,VALID,1009.016,VALID,0.0,VALID,104.0,VALID,0.0,VALID,25.838,VALID,266.0,VALID,0.409,
2011-10-16, 01:06:04,VALID,1008.991,VALID,0.0,VALID,104.0,VALID,0.0,VALID,25.877,VALID,266.0,VALID,0.322,
2011-10-16, 01:07:04,VALID,1008.958,VALID,0.0,VALID,104.0,VALID,0.0,VALID,25.936,VALID,266.0,VALID,0.211,
2011-10-16, 01:08:04,VALID,1008.944,VALID,0.0,VALID,104.0,VALID,0.0,VALID,25.975,VALID,296.0,VALID,0.614,
2011-10-16, 01:09:04,VALID,1008.949,VALID,0.0,VALID,104.0,VALID,0.0,VALID,26.033,VALID,296.0,VALID,0.493,
2011-10-16, 01:10:04,VALID,1008.894,VALID,0.0,VALID,104.0,VALID,0.0,VALID,26.072,VALID,295.0,VALID,0.482,
2011-10-16, 01:11:04,VALID,1008.85,VALID,0.0,VALID,104.0,VALID,0.0,VALID,26.111,VALID,295.0,VALID,0.368,
2011-10-16, 01:12:04,VALID,1008.811,VALID,0.0,VALID,104.0,VALID,0.0,VALID,26.129,VALID,295.0,VALID,0.207,
2011-10-16, 01:13:04,VALID,1008.777,VALID,0.0,VALID,104.0,VALID,0.0,VALID,26.189,VALID,295.0,VALID,0.248,
2011-10-16, 01:14:04,VALID,1008.783,VALID,0.0,VALID,104.0,VALID,0.0,VALID,26.209,VALID,294.0,VALID,0.064,
2011-10-16, 01:15:04,VALID,1008.798,VALID,0.0,VALID,103.901,VALID,0.0,VALID,26.209,VALID,301.0,VALID,0.467,
2011-10-16, 01:16:04,VALID,1008.771,VALID,0.0,VALID,103.779,VALID,0.112,VALID,26.248,VALID,89.0,VALID,0.805,
2011-10-16, 01:17:04,VALID,1008.767,VALID,0.0,VALID,103.771,VALID,0.0,VALID,26.267,VALID,110.0,VALID,1.195,
2011-10-16, 01:18:04,VALID,1008.76,VALID,0.0,VALID,103.565,VALID,0.0,VALID,26.228,VALID,119.0,VALID,1.645,
2011-10-16, 01:19:04,VALID,1008.776,VALID,0.0,VALID,103.428,VALID,0.112,VALID,26.168,VALID,112.0,VALID,1.683,
2011-10-16, 01:20:04,VALID,1008.767,VALID,0.0,VALID,103.504,VALID,0.112,VALID,26.109,VALID,89.0,VALID,1.893,
2011-10-16, 01:21:04,VALID,1008.781,VALID,0.5,VALID,103.893,VALID,0.112,VALID,26.07,VALID,88.0,VALID,1.15,
2011-10-16, 01:22:04,VALID,1008.787,VALID,1.0,VALID,104.0,VALID,0.112,VALID,26.012,VALID,84.0,VALID,0.355,
2011-10-16, 01:23:04,VALID,1008.76,VALID,0.5,VALID,104.0,VALID,0.112,VALID,25.973,VALID,85.0,VALID,0.232,
2011-10-16, 01:24:04,VALID,1008.742,VALID,0.5,VALID,104.0,VALID,0.112,VALID,25.973,VALID,22.0,VALID,0.77,
2011-10-16, 01:25:04,VALID,1008.722,VALID,0.0,VALID,104.0,VALID,0.112,VALID,25.953,VALID,14.0,VALID,0.568,
2011-10-16, 01:26:04,VALID,1008.741,VALID,1.0,VALID,104.0,VALID,0.112,VALID,25.914,VALID,345.0,VALID,0.45,
2011-10-16, 01:27:04,VALID,1008.699,VALID,1.0,VALID,104.0,VALID,0.112,VALID,25.895,VALID,345.0,VALID,0.43,
2011-10-16, 01:28:04,VALID,1008.676,VALID,0.5,VALID,104.0,VALID,0.0,VALID,25.875,VALID,345.0,VALID,0.686,
2011-10-16, 01:29:04,VALID,1008.7,VALID,0.5,VALID,104.0,VALID,0.112,VALID,25.856,VALID,345.0,VALID,0.328,
2011-10-16, 01:30:04,VALID,1008.713,VALID,1.0,VALID,104.0,VALID,0.112,VALID,25.875,VALID,345.0,VALID,0.421,
2011-10-16, 01:31:04,VALID,1008.718,VALID,0.5,VALID,104.0,VALID,0.112,VALID,25.895,VALID,344.0,VALID,0.4,
2011-10-16, 01:32:04,VALID,1008.746,VALID,0.0,VALID,104.0,VALID,0.112,VALID,25.895,VALID,220.0,VALID,0.236,
2011-10-16, 01:33:04,VALID,1008.721,VALID,0.5,VALID,104.0,VALID,0.112,VALID,25.873,VALID,161.0,VALID,0.547,
2011-10-16, 01:34:04,VALID,1008.708,VALID,0.0,VALID,104.0,VALID,0.112,VALID,25.875,VALID,77.0,VALID,0.788,
2011-10-16, 01:35:04,VALID,1008.7,VALID,0.0,VALID,104.0,VALID,0.0,VALID,25.875,VALID,55.0,VALID,0.791,
2011-10-16, 01:36:04,VALID,1008.705,VALID,0.0,VALID,104.0,VALID,0.0,VALID,25.856,VALID,32.0,VALID,0.601,
2011-10-16, 01:37:04,VALID,1008.705,VALID,0.0,VALID,104.0,VALID,0.112,VALID,25.856,VALID,24.0,VALID,0.633,
2011-10-16, 01:38:04,VALID,1008.726,VALID,0.0,VALID,104.0,VALID,0.112,VALID,25.856,VALID,16.0,VALID,0.564,
2011-10-16, 01:39:04,VALID,1008.699,VALID,0.0,VALID,104.0,VALID,0.112,VALID,25.836,VALID,16.0,VALID,0.554,
2011-10-16, 01:40:04,VALID,1008.721,VALID,0.0,VALID,104.0,VALID,0.0,VALID,25.877,VALID,17.0,VALID,0.57,
2011-10-16, 01:41:04,VALID,1008.677,VALID,0.5,VALID,104.0,VALID,0.112,VALID,25.856,VALID,16.0,VALID,0.387,
2011-10-16, 01:42:04,VALID,1008.66,VALID,0.0,VALID,104.0,VALID,0.112,VALID,25.836,VALID,16.0,VALID,0.18,
2011-10-16, 01:43:04,VALID,1008.665,VALID,0.0,VALID,104.0,VALID,0.112,VALID,25.856,VALID,16.0,VALID,0.315,
2011-10-16, 01:44:04,VALID,1008.659,VALID,0.0,VALID,104.0,VALID,0.112,VALID,25.856,VALID,17.0,VALID,0.51,
2011-10-16, 01:45:04,VALID,1008.674,VALID,0.0,VALID,104.0,VALID,0.112,VALID,25.856,VALID,16.0,VALID,0.157,
2011-10-16, 01:46:04,VALID,1008.715,VALID,0.0,VALID,104.0,VALID,0.112,VALID,25.875,VALID,17.0,VALID,0.134,
2011-10-16, 01:47:04,VALID,1008.729,VALID,0.5,VALID,104.0,VALID,0.0,VALID,25.875,VALID,17.0,VALID,0.436,
2011-10-16, 01:48:04,VALID,1008.778,VALID,0.0,VALID,104.0,VALID,0.112,VALID,25.914,VALID,16.0,VALID,0.336,
2011-10-16, 01:49:04,VALID,1008.782,VALID,0.0,VALID,104.0,VALID,0.0,VALID,25.914,VALID,25.0,VALID,0.484,
2011-10-16, 01:50:04,VALID,1008.776,VALID,0.5,VALID,104.0,VALID,0.0,VALID,25.955,VALID,157.0,VALID,0.989,
2011-10-16, 01:51:04,VALID,1008.764,VALID,0.0,VALID,104.0,VALID,0.0,VALID,25.934,VALID,157.0,VALID,0.762,
2011-10-16, 01:52:04,VALID,1008.728,VALID,0.0,VALID,104.0,VALID,0.0,VALID,25.975,VALID,157.0,VALID,0.537,
2011-10-16, 01:53:04,VALID,1008.698,VALID,0.5,VALID,104.0,VALID,0.0,VALID,25.934,VALID,157.0,VALID,0.4,
2011-10-16, 01:54:04,VALID,1008.659,VALID,0.0,VALID,104.0,VALID,0.0,VALID,25.953,VALID,157.0,VALID,0.213,
2011-10-16, 01:55:04,VALID,1008.646,VALID,0.0,VALID,104.0,VALID,0.0,VALID,25.975,VALID,157.0,VALID,0.0,
2011-10-16, 01:56:04,VALID,1008.647,VALID,0.0,VALID,104.0,VALID,0.112,VALID,25.973,VALID,157.0,VALID,0.273,
2011-10-16, 01:57:04,VALID,1008.605,VALID,0.0,VALID,104.0,VALID,0.112,VALID,25.973,VALID,157.0,VALID,0.516,
2011-10-16, 01:58:04,VALID,1008.592,VALID,0.0,VALID,104.0,VALID,0.112,VALID,26.014,VALID,157.0,VALID,0.082,
2011-10-16, 01:59:04,VALID,1008.578,VALID,0.0,VALID,104.0,VALID,0.112,VALID,25.992,VALID,157.0,VALID,0.046,
2011-10-16, 02:00:04,VALID,1008.584,VALID,0.0,VALID,104.0,VALID,0.0,VALID,25.992,VALID,157.0,VALID,0.171,
2011-10-16, 02:01:04,VALID,1008.582,VALID,0.0,VALID,104.0,VALID,0.0,VALID,25.992,VALID,142.0,VALID,0.504,
2011-10-16, 02:02:04,VALID,1008.569,VALID,0.0,VALID,104.0,VALID,0.0,VALID,25.994,VALID,112.0,VALID,1.07,
2011-10-16, 02:03:04,VALID,1008.594,VALID,0.0,VALID,104.0,VALID,0.112,VALID,25.973,VALID,138.0,VALID,0.911,
2011-10-16, 02:04:04,VALID,1008.615,VALID,0.0,VALID,104.0,VALID,0.112,VALID,25.994,VALID,149.0,VALID,1.005,
2011-10-16, 02:05:04,VALID,1008.571,VALID,0.0,VALID,104.0,VALID,0.0,VALID,25.934,VALID,125.0,VALID,1.8,
2011-10-16, 02:06:04,VALID,1008.523,VALID,0.0,VALID,104.0,VALID,0.112,VALID,25.856,VALID,135.0,VALID,1.293,
2011-10-16, 02:07:04,VALID,1008.531,VALID,0.0,VALID,104.0,VALID,0.112,VALID,25.836,VALID,140.0,VALID,1.776,
2011-10-16, 02:08:04,VALID,1008.505,VALID,0.0,VALID,104.0,VALID,0.112,VALID,25.797,VALID,141.0,VALID,1.443,
2011-10-16, 02:09:04,VALID,1008.477,VALID,0.0,VALID,104.0,VALID,0.0,VALID,25.778,VALID,146.0,VALID,0.908,
2011-10-16, 02:10:04,VALID,1008.456,VALID,0.0,VALID,104.0,VALID,0.112,VALID,25.778,VALID,141.0,VALID,0.723,
2011-10-16, 02:11:04,VALID,1008.45,VALID,0.0,VALID,104.0,VALID,0.0,VALID,25.739,VALID,133.0,VALID,0.611,
2011-10-16, 02:12:04,VALID,1008.456,VALID,0.0,VALID,104.0,VALID,0.112,VALID,25.719,VALID,140.0,VALID,0.998,
2011-10-16, 02:13:04,VALID,1008.491,VALID,0.0,VALID,104.0,VALID,0.112,VALID,25.719,VALID,146.0,VALID,0.632,
2011-10-16, 02:14:04,VALID,1008.512,VALID,0.0,VALID,104.0,VALID,0.112,VALID,25.719,VALID,145.0,VALID,0.693,
2011-10-16, 02:15:04,VALID,1008.498,VALID,0.0,VALID,104.0,VALID,0.112,VALID,25.719,VALID,145.0,VALID,0.854,
2011-10-16, 02:16:04,VALID,1008.528,VALID,0.0,VALID,104.0,VALID,0.0,VALID,25.719,VALID,150.0,VALID,1.015,
2011-10-16, 02:17:04,VALID,1008.56,VALID,0.0,VALID,104.0,VALID,0.112,VALID,25.7,VALID,180.0,VALID,0.873,
2011-10-16, 02:18:04,VALID,1008.564,VALID,0.0,VALID,104.0,VALID,0.0,VALID,25.719,VALID,180.0,VALID,0.918,
2011-10-16, 02:19:04,VALID,1008.575,VALID,0.0,VALID,104.0,VALID,0.0,VALID,25.758,VALID,197.0,VALID,1.043,
2011-10-16, 02:20:04,VALID,1008.594,VALID,0.0,VALID,104.0,VALID,0.0,VALID,25.778,VALID,192.0,VALID,0.822,
2011-10-16, 02:21:04,VALID,1008.591,VALID,0.0,VALID,104.0,VALID,0.0,VALID,25.799,VALID,197.0,VALID,0.74,
2011-10-16, 02:22:04,VALID,1008.617,VALID,0.0,VALID,104.0,VALID,0.0,VALID,25.778,VALID,192.0,VALID,0.61,
2011-10-16, 02:23:04,VALID,1008.617,VALID,0.0,VALID,104.0,VALID,0.0,VALID,25.797,VALID,179.0,VALID,0.878,
2011-10-16, 02:24:04,VALID,1008.611,VALID,0.0,VALID,104.0,VALID,0.112,VALID,25.778,VALID,187.0,VALID,0.625,
2011-10-16, 02:25:04,VALID,1008.602,VALID,0.0,VALID,104.0,VALID,0.112,VALID,25.778,VALID,180.0,VALID,0.637,
2011-10-16, 02:26:04,VALID,1008.579,VALID,0.0,VALID,104.0,VALID,0.112,VALID,25.778,VALID,167.0,VALID,0.57,
2011-10-16, 02:27:04,VALID,1008.561,VALID,0.0,VALID,104.0,VALID,0.0,VALID,25.758,VALID,156.0,VALID,0.816,
2011-10-16, 02:28:04,VALID,1008.551,VALID,0.0,VALID,104.0,VALID,0.112,VALID,25.778,VALID,156.0,VALID,0.435,
2011-10-16, 02:29:04,VALID,1008.526,VALID,0.0,VALID,104.0,VALID,0.112,VALID,25.778,VALID,156.0,VALID,0.28,
2011-10-16, 02:30:04,VALID,1008.473,VALID,0.0,VALID,104.0,VALID,0.112,VALID,25.778,VALID,140.0,VALID,0.337,
2011-10-16, 02:31:04,VALID,1008.433,VALID,0.0,VALID,104.0,VALID,0.112,VALID,25.78,VALID,138.0,VALID,0.457,
2011-10-16, 02:32:04,VALID,1008.407,VALID,0.0,VALID,104.0,VALID,0.112,VALID,25.778,VALID,133.0,VALID,0.473,
2011-10-16, 02:33:04,VALID,1008.386,VALID,0.0,VALID,104.0,VALID,0.112,VALID,25.819,VALID,133.0,VALID,0.304,
2011-10-16, 02:34:04,VALID,1008.355,VALID,0.0,VALID,104.0,VALID,0.112,VALID,25.797,VALID,132.0,VALID,0.066,
2011-10-16, 02:35:04,VALID,1008.352,VALID,0.0,VALID,104.0,VALID,0.0,VALID,25.799,VALID,131.0,VALID,0.0,
2011-10-16, 02:36:04,VALID,1008.342,VALID,0.0,VALID,104.0,VALID,0.0,VALID,25.819,VALID,132.0,VALID,0.295,
2011-10-16, 02:37:04,VALID,1008.357,VALID,0.0,VALID,104.0,VALID,0.0,VALID,25.819,VALID,132.0,VALID,0.39,
2011-10-16, 02:38:04,VALID,1008.356,VALID,0.0,VALID,104.0,VALID,0.0,VALID,25.817,VALID,132.0,VALID,0.35,
2011-10-16, 02:39:04,VALID,1008.37,VALID,0.0,VALID,104.0,VALID,0.0,VALID,25.858,VALID,132.0,VALID,0.186,
2011-10-16, 02:40:04,VALID,1008.376,VALID,0.0,VALID,104.0,VALID,0.0,VALID,25.838,VALID,132.0,VALID,0.0,
2011-10-16, 02:41:04,VALID,1008.362,VALID,0.0,VALID,104.0,VALID,0.0,VALID,25.877,VALID,132.0,VALID,0.128,
2011-10-16, 02:42:04,VALID,1008.355,VALID,0.0,VALID,104.0,VALID,0.0,VALID,25.897,VALID,132.0,VALID,0.434,
2011-10-16, 02:43:04,VALID,1008.333,VALID,0.0,VALID,104.0,VALID,0.0,VALID,25.916,VALID,132.0,VALID,0.309,
2011-10-16, 02:44:04,VALID,1008.29,VALID,0.0,VALID,104.0,VALID,0.0,VALID,25.895,VALID,132.0,VALID,0.277,
2011-10-16, 02:45:04,VALID,1008.279,VALID,0.0,VALID,104.0,VALID,0.0,VALID,25.916,VALID,132.0,VALID,0.234,
2011-10-16, 02:46:04,VALID,1008.229,VALID,0.0,VALID,104.0,VALID,0.0,VALID,25.858,VALID,255.0,VALID,0.463,
2011-10-16, 02:47:04,VALID,1008.208,VALID,0.0,VALID,104.0,VALID,0.0,VALID,25.877,VALID,255.0,VALID,0.267,
2011-10-16, 02:48:04,VALID,1008.194,VALID,0.0,VALID,104.0,VALID,0.0,VALID,25.916,VALID,357.0,VALID,0.827,
2011-10-16, 02:49:04,VALID,1008.207,VALID,0.0,VALID,104.0,VALID,0.0,VALID,25.877,VALID,319.0,VALID,1.286,
2011-10-16, 02:50:04,VALID,1008.178,VALID,0.0,VALID,104.0,VALID,0.0,VALID,25.858,VALID,334.0,VALID,0.298,
2011-10-16, 02:51:04,VALID,1008.171,VALID,0.0,VALID,104.0,VALID,0.0,VALID,25.838,VALID,328.0,VALID,0.334,
2011-10-16, 02:52:04,VALID,1008.169,VALID,0.0,VALID,104.0,VALID,0.0,VALID,25.838,VALID,328.0,VALID,0.0,
2011-10-16, 02:53:04,VALID,1008.139,VALID,0.0,VALID,104.0,VALID,0.0,VALID,25.819,VALID,328.0,VALID,0.0,
2011-10-16, 02:54:04,VALID,1008.134,VALID,0.0,VALID,104.0,VALID,0.0,VALID,25.819,VALID,328.0,VALID,0.197,
2011-10-16, 02:55:04,VALID,1008.147,VALID,0.0,VALID,104.0,VALID,0.0,VALID,25.799,VALID,328.0,VALID,0.226,
2011-10-16, 02:56:04,VALID,1008.148,VALID,0.0,VALID,104.0,VALID,0.0,VALID,25.778,VALID,328.0,VALID,0.272,
2011-10-16, 02:57:04,VALID,1008.188,VALID,0.0,VALID,104.0,VALID,0.0,VALID,25.799,VALID,328.0,VALID,0.292,
2011-10-16, 02:58:04,VALID,1008.195,VALID,0.0,VALID,104.0,VALID,0.0,VALID,25.78,VALID,328.0,VALID,0.026,
2011-10-16, 02:59:04,VALID,1008.241,VALID,0.0,VALID,104.0,VALID,0.0,VALID,25.78,VALID,328.0,VALID,0.0,
2011-10-16, 03:00:04,VALID,1008.284,VALID,0.0,VALID,104.0,VALID,0.0,VALID,25.76,VALID,328.0,VALID,0.0,
2011-10-16, 03:01:04,VALID,1008.316,VALID,0.0,VALID,104.0,VALID,0.0,VALID,25.741,VALID,328.0,VALID,0.0,
2011-10-16, 03:02:04,VALID,1008.325,VALID,0.0,VALID,104.0,VALID,0.0,VALID,25.741,VALID,328.0,VALID,0.0,
2011-10-16, 03:03:04,VALID,1008.355,VALID,0.0,VALID,104.0,VALID,0.0,VALID,25.719,VALID,328.0,VALID,0.0,
2011-10-16, 03:04:04,VALID,1008.39,VALID,0.0,VALID,104.0,VALID,0.0,VALID,25.721,VALID,328.0,VALID,0.0,
2011-10-16, 03:05:04,VALID,1008.429,VALID,0.0,VALID,104.0,VALID,0.0,VALID,25.721,VALID,328.0,VALID,0.0,
2011-10-16, 03:06:04,VALID,1008.453,VALID,0.0,VALID,104.0,VALID,0.112,VALID,25.7,VALID,328.0,VALID,0.0,
2011-10-16, 03:07:04,VALID,1008.509,VALID,0.0,VALID,104.0,VALID,0.112,VALID,25.7,VALID,328.0,VALID,0.0,
2011-10-16, 03:08:04,VALID,1008.524,VALID,0.0,VALID,104.0,VALID,0.112,VALID,25.68,VALID,328.0,VALID,0.0,
2011-10-16, 03:09:04,VALID,1008.547,VALID,0.0,VALID,104.0,VALID,0.112,VALID,25.7,VALID,328.0,VALID,0.0,
2011-10-16, 03:10:04,VALID,1008.546,VALID,0.0,VALID,104.0,VALID,0.112,VALID,25.68,VALID,328.0,VALID,0.0,
2011-10-16, 03:11:04,VALID,1008.541,VALID,0.0,VALID,104.0,VALID,0.112,VALID,25.68,VALID,328.0,VALID,0.23,
2011-10-16, 03:12:04,VALID,1008.56,VALID,0.0,VALID,104.0,VALID,0.0,VALID,25.719,VALID,328.0,VALID,0.148,
2011-10-16, 03:13:04,VALID,1008.574,VALID,0.0,VALID,104.0,VALID,0.112,VALID,25.721,VALID,328.0,VALID,0.209,
2011-10-16, 03:14:04,VALID,1008.57,VALID,0.0,VALID,104.0,VALID,0.112,VALID,25.7,VALID,328.0,VALID,0.0,
2011-10-16, 03:15:04,VALID,1008.568,VALID,0.0,VALID,104.0,VALID,0.112,VALID,25.698,VALID,328.0,VALID,0.054,
2011-10-16, 03:16:04,VALID,1008.579,VALID,0.0,VALID,104.0,VALID,0.112,VALID,25.719,VALID,328.0,VALID,0.034,
2011-10-16, 03:17:04,VALID,1008.595,VALID,0.0,VALID,104.0,VALID,0.0,VALID,25.7,VALID,328.0,VALID,0.389,
2011-10-16, 03:18:04,VALID,1008.621,VALID,0.0,VALID,104.0,VALID,0.0,VALID,25.7,VALID,328.0,VALID,0.213,
2011-10-16, 03:19:04,VALID,1008.606,VALID,0.0,VALID,104.0,VALID,0.112,VALID,25.7,VALID,328.0,VALID,0.379,
2011-10-16, 03:20:04,VALID,1008.609,VALID,0.0,VALID,104.0,VALID,0.112,VALID,25.7,VALID,328.0,VALID,0.496,
2011-10-16, 03:21:04,VALID,1008.64,VALID,0.0,VALID,104.0,VALID,0.112,VALID,25.678,VALID,328.0,VALID,0.271,
2011-10-16, 03:22:04,VALID,1008.635,VALID,0.0,VALID,104.0,VALID,0.0,VALID,25.7,VALID,328.0,VALID,0.295,
2011-10-16, 03:23:04,VALID,1008.636,VALID,0.0,VALID,104.0,VALID,0.112,VALID,25.719,VALID,322.0,VALID,0.356,
2011-10-16, 03:24:04,VALID,1008.642,VALID,0.0,VALID,104.0,VALID,0.112,VALID,25.698,VALID,318.0,VALID,0.044,
2011-10-16, 03:25:04,VALID,1008.59,VALID,0.0,VALID,104.0,VALID,0.112,VALID,25.678,VALID,317.0,VALID,0.138,
2011-10-16, 03:26:04,VALID,1008.567,VALID,0.0,VALID,104.0,VALID,0.112,VALID,25.7,VALID,315.0,VALID,0.172,
2011-10-16, 03:27:04,VALID,1008.563,VALID,0.0,VALID,104.0,VALID,0.0,VALID,25.68,VALID,344.0,VALID,0.67,
2011-10-16, 03:28:04,VALID,1008.535,VALID,0.0,VALID,104.0,VALID,0.112,VALID,25.68,VALID,344.0,VALID,0.492,
2011-10-16, 03:29:04,VALID,1008.461,VALID,0.0,VALID,104.0,VALID,0.112,VALID,25.661,VALID,344.0,VALID,0.239,
2011-10-16, 03:30:04,VALID,1008.425,VALID,0.0,VALID,104.0,VALID,0.0,VALID,25.641,VALID,344.0,VALID,0.44,
2011-10-16, 03:31:04,VALID,1008.389,VALID,0.0,VALID,104.0,VALID,0.0,VALID,25.622,VALID,344.0,VALID,0.593,
2011-10-16, 03:32:04,VALID,1008.367,VALID,0.0,VALID,104.0,VALID,0.112,VALID,25.622,VALID,344.0,VALID,0.454,
2011-10-16, 03:33:04,VALID,1008.319,VALID,0.0,VALID,104.0,VALID,0.0,VALID,25.602,VALID,344.0,VALID,0.328,
2011-10-16, 03:34:04,VALID,1008.317,VALID,0.0,VALID,104.0,VALID,0.0,VALID,25.602,VALID,344.0,VALID,0.287,
2011-10-16, 03:35:04,VALID,1008.272,VALID,0.0,VALID,104.0,VALID,0.112,VALID,25.563,VALID,344.0,VALID,0.297,
2011-10-16, 03:36:04,VALID,1008.277,VALID,0.0,VALID,104.0,VALID,0.0,VALID,25.526,VALID,344.0,VALID,0.369,
2011-10-16, 03:37:04,VALID,1008.253,VALID,0.0,VALID,104.0,VALID,0.0,VALID,25.507,VALID,344.0,VALID,0.12,
2011-10-16, 03:38:04,VALID,1008.283,VALID,0.0,VALID,104.0,VALID,0.0,VALID,25.489,VALID,344.0,VALID,0.0,
2011-10-16, 03:39:04,VALID,1008.309,VALID,0.0,VALID,104.0,VALID,0.0,VALID,25.468,VALID,344.0,VALID,0.312,
2011-10-16, 03:40:04,VALID,1008.316,VALID,0.0,VALID,104.0,VALID,0.0,VALID,25.429,VALID,344.0,VALID,0.357,
2011-10-16, 03:41:04,VALID,1008.342,VALID,0.0,VALID,104.0,VALID,0.0,VALID,25.429,VALID,344.0,VALID,0.377,
2011-10-16, 03:42:04,VALID,1008.343,VALID,0.0,VALID,104.0,VALID,0.0,VALID,25.429,VALID,344.0,VALID,0.359,